Showing default

GAOFEN 9, 40894

Orbit data source: Space-Track

GAOFEN 9, 40894 is a payload satellite owned by GGKGJ (CN) in SSO that was launched on Mon, 14 Sep 2015 UTC via a CHANG ZHENG 2D launch vehicle from the Jiuquan Satellite Launch Center, China (JSC). Payload-class satellites include a variety of spacecraft equipped with specific instruments for various scientific and technological missions. These include communications satellites like Starlink; space stations such as the ISS; scientific satellites like the Hubble; Earth observation satellites from companies like Planet Labs, Umbra, and HawkEye 360; GPS; miniature CubeSats for education and research; and military/defense satellites.

Loading next visibility...
Identifier
40894, 2015-047A
Orbit
SSO
Country
Flag of CNCN / PRC
Related business
Manufacturer
DFH
Mission
Operational Defense Imaging
Bus & Motor
CAST-3000, AOCS
Mass
~1,700 kg wet, ~1,200 kg dry
Launch date (UTC)
2015-09-14 (11 years ago)
Launch vehicle
CHANG ZHENG 2D
Launch site
Jiuquan Satellite Launch Center, China (JSC)
Object type
Payload
Rocket body
Debris
Shape & HBR
Box + 2 Pan, 2.0 m
Radar Cross Section
4.991 m², Large (>1 m²)

Expand to show TLE details & history
Last TLE update: 22 hours ago

TLE from 22 hours ago
0 GAOFEN 9
1 40894U 15047A   26172.51610501  .00000659  00000-0  87040-4 0  9992
2 40894  97.6278 208.0143 0028657 124.2083 236.1854 14.82890423580836
Epoch: 2026-06-21T12:23Z
TLE epoch observation values (Epoch: 2026-06-21T12:23:11.472Z)
Latitude
0.00004°
Longitude
112.50124°
Altitude
634.452 km
Speed
7.535 km/s
True Right ascension
13h 52m 03s
True Declination
0° 00' 00"
Sunlit
Object was in full shadow at epoch
Visualization orbit readout
Latitude
Unknown
Longitude
Unknown
Altitude
Unknown
Speed
Unknown
Apparent Right ascension
Unknown
Apparent Declination
Unknown
Sunlit
N/A
Visualization observer readout
Local Sidereal Time
21:39:09
Azimuth
Unknown
Elevation
Unknown
Doppler factor
Unknown
Orbital elements
Apogee altitude
637.287 km
Perigee altitude
597.194 km
Semi-major axis
6,995.377 km
Eccentricity
0.00287
Inclination
97.6278°
RAAN
208.0143°
Arg. of periapsis
124.2083°
True anomaly
235.91311°
Mean anomaly
236.1854°
Eccentric anomaly
236.0492°
Mean motion
3.70959 °/min
Orbital period
97.05 mins
BSTAR
0.00008704
Loading maneuver chart data...
Computing Atmospheric mass density...
Loading historical data...
Loading historical data...
Loading historical data...
Loading historical data...
Loading historical data...
Loading historical data...
Loading historical data...
Other satellites on launch #47 in the year 2015 (2015-09-14 UTC)

Documentation

Showing up to 5 results
|